Weather History for Springfield, OH

Change the Weather History Date:

Thursday, June 13, 2013

  Actual Average (KDAY) Record (KDAY)
Temperature  
Mean Temperature 72 °F 70 °F  
Max Temperature 81 °F 80 °F 95 °F (1902)
Min Temperature 63 °F 61 °F 42 °F (1903)
Degree Days  
Heating Degree Days 0 1  
Month to date heating degree days 19  
Since 1 June heating degree days 19  
Since 1 July heating degree days 5639  
Cooling Degree Days 8 6  
Month to date cooling degree days 62  
Year to date cooling degree days 132  
Since 1 June cooling degree days 62  
Growing Degree Days 22 (Base 50)    
Moisture  
Dew Point 62 °F    
Average Humidity 81    
Maximum Humidity 100    
Minimum Humidity 45    
Precipitation  
Precipitation 1.40 in 0.13 in 3.25 in (1958)
Month to date precipitation 1.83  
Year to date precipitation 18.87  
Snow  
Snow 0.00 in 0.00 in 0.00 in ()
Month to date snowfall 0.0  
Since 1 June snowfall 0.0  
Since 1 July snowfall 23.3  
Snow Depth -    
Sea Level Pressure  
Sea Level Pressure 29.73 in    
Wind  
Wind Speed 11 mph (NW)    
Max Wind Speed 23 mph    
Max Gust Speed 33 mph    
Visibility 4 miles    
Events Rain , Thunderstorm    
T = Trace of Precipitation, MM = Missing Value Source: NWS Daily Summary

Daily Weather History Graph

Daily Weather History Graph

Search for Another Location

Airport:

Trip Planner

Search our weather history database for the weather conditions in past years. The results will help you decide how hot, cold, wet, or windy it might be!

Date:

Astronomy

Jun. 13, 2013 Rise Set
Actual Time 6:06 AM EDT 9:04 PM EDT
Civil Twilight 5:33 AM EDT 9:37 PM EDT
Nautical Twilight 4:52 AM EDT 10:18 PM EDT
Astronomical Twilight 4:04 AM EDT 11:06 PM EDT
Moon 10:41 AM EDT (6/13) No Moon Set
Length of Visible Light 16h 03m
Length of Day
14h 58m
Waxing Crescent, 21% of the Moon is Illuminated
Jun 13
Waxing Crescent
Jun 16
First Quarter
Jun 23
Full
Jun 30
Last Quarter
Jul 8
New

Hourly Weather History & Observations

Time (EDT) Temp. Heat Index Dew Point Humidity Pressure Visibility Wind Dir Wind Speed Gust Speed Precip Events Conditions
12:56 AM 81.0 °F 85.6 °F 72.9 °F 76% 29.67 in 7.0 mi SSW 16.1 mph 19.6 mph N/A   Clear
1:30 AM 73.4 °F - 64.4 °F 73% 29.76 in 5.0 mi NNW 23.0 mph 33.4 mph 0.00 in Rain Light Rain
1:40 AM 68.0 °F - 66.2 °F 94% 29.78 in 2.5 mi NNW 17.3 mph - 0.02 in Rain , Thunderstorm Light Thunderstorms and Rain
1:43 AM 66.2 °F - 66.2 °F 100% 29.77 in 1.8 mi NNW 15.0 mph - 0.05 in Rain , Thunderstorm Heavy Thunderstorms and Rain
1:56 AM 65.8 °F - 65.8 °F 100% 29.72 in 1.2 mi NNW 12.7 mph - 0.16 in Rain , Thunderstorm Heavy Thunderstorms and Rain
2:01 AM 64.4 °F - 64.4 °F 100% 29.75 in 0.8 mi NNW 15.0 mph - 0.10 in Rain , Thunderstorm Heavy Thunderstorms and Rain
2:10 AM 64.4 °F - - N/A% 29.77 in 0.8 mi WNW 11.5 mph - 0.25 in Rain , Thunderstorm Heavy Thunderstorms and Rain
2:19 AM 64.4 °F - - N/A% 29.74 in 0.8 mi Variable 4.6 mph - 0.41 in Rain , Thunderstorm Heavy Thunderstorms and Rain
2:33 AM 64.4 °F - - N/A% 29.72 in 1.0 mi North 8.1 mph - 0.54 in Rain , Thunderstorm Heavy Thunderstorms and Rain
2:38 AM 64.4 °F - - N/A% 29.72 in 1.5 mi North 6.9 mph - 0.57 in Rain , Thunderstorm Heavy Thunderstorms and Rain
2:42 AM 64.4 °F - - N/A% 29.72 in 2.5 mi Variable 4.6 mph - 0.58 in Rain , Thunderstorm Thunderstorms and Rain
2:47 AM 64.4 °F - - N/A% 29.72 in 1.8 mi Variable 3.5 mph - 0.60 in Rain , Thunderstorm Heavy Thunderstorms and Rain
2:56 AM 64.9 °F - - N/A% 29.68 in 1.2 mi SSE 3.5 mph - 0.70 in Rain , Thunderstorm Heavy Thunderstorms and Rain
3:01 AM 64.4 °F - - N/A% 29.70 in 1.8 mi SSE 4.6 mph - 0.01 in Rain , Thunderstorm Thunderstorms and Rain
3:04 AM 64.4 °F - - N/A% 29.70 in 3.0 mi South 4.6 mph - 0.01 in Rain , Thunderstorm Light Thunderstorms and Rain
3:28 AM 64.4 °F - - N/A% 29.70 in 3.0 mi Variable 3.5 mph - 0.05 in   Mostly Cloudy
3:49 AM 64.4 °F - - N/A% 29.69 in 7.0 mi SSW 5.8 mph - 0.06 in   Mostly Cloudy
3:56 AM 64.9 °F - - N/A% 29.66 in 7.0 mi South 5.8 mph - 0.06 in   Mostly Cloudy
4:17 AM 66.2 °F - - N/A% 29.73 in 5.0 mi WSW 4.6 mph - 0.01 in Rain , Thunderstorm Light Thunderstorms and Rain
4:21 AM 64.4 °F - - N/A% 29.71 in 2.5 mi Variable 6.9 mph - 0.13 in Rain , Thunderstorm Light Thunderstorms and Rain
4:23 AM 64.4 °F - - N/A% 29.69 in 1.0 mi South 6.9 mph - 0.21 in Rain , Thunderstorm Heavy Thunderstorms and Rain
4:29 AM 64.4 °F - - N/A% 29.67 in 0.8 mi Variable 4.6 mph - 0.23 in Rain , Thunderstorm Thunderstorms and Rain
4:32 AM 64.4 °F - - N/A% 29.68 in 1.2 mi Variable 4.6 mph - 0.23 in Rain , Thunderstorm Light Thunderstorms and Rain
4:34 AM 66.2 °F - - N/A% 29.69 in 3.0 mi WSW 8.1 mph - 0.24 in Rain , Thunderstorm Light Thunderstorms and Rain
4:47 AM 64.4 °F - - N/A% 29.67 in 6.0 mi SSW 8.1 mph - 0.24 in Rain , Thunderstorm Light Thunderstorms and Rain
4:56 AM 64.9 °F - - N/A% 29.60 in 6.0 mi SSW 8.1 mph - 0.24 in Rain , Thunderstorm Light Thunderstorms and Rain
5:03 AM 64.4 °F - - N/A% 29.64 in 7.0 mi SW 10.4 mph - 0.00 in Rain Light Rain
5:56 AM 65.8 °F - - N/A% 29.60 in 7.0 mi SW 13.8 mph - 0.00 in   Partly Cloudy
6:56 AM 68.0 °F - - N/A% 29.62 in 6.0 mi WNW 9.2 mph - N/A   Haze
7:56 AM 68.9 °F - - N/A% 29.66 in 7.0 mi West 6.9 mph - N/A   Clear
8:30 AM 69.8 °F - 69.8 °F 100% 29.67 in 7.0 mi NNW 13.8 mph - N/A   Mostly Cloudy
8:40 AM 69.8 °F - 69.8 °F 100% 29.69 in 5.0 mi NW 12.7 mph - 0.01 in Rain , Thunderstorm Light Thunderstorms and Rain
8:49 AM 69.8 °F - 69.8 °F 100% 29.69 in 2.5 mi NW 16.1 mph - 0.02 in Rain , Thunderstorm Rain
8:56 AM 68.0 °F - 68.0 °F 100% 29.67 in 1.8 mi NNW 13.8 mph 20.7 mph 0.05 in   Overcast
9:07 AM 68.0 °F - - N/A% 29.70 in 2.0 mi NW 11.5 mph - 0.02 in Rain Rain
9:19 AM 66.2 °F - - N/A% 29.71 in 3.0 mi NNW 10.4 mph - 0.03 in Rain Rain
9:25 AM 66.2 °F - - N/A% 29.71 in 1.8 mi NNW 10.4 mph - 0.07 in Rain Heavy Rain
9:47 AM 66.2 °F - - N/A% 29.71 in 2.0 mi NNW 9.2 mph - 0.14 in Rain Rain
9:56 AM 65.8 °F - - N/A% 29.69 in 2.5 mi NW 8.1 mph - 0.16 in Rain , Thunderstorm Rain
10:00 AM 66.2 °F - - N/A% 29.71 in 3.0 mi NNW 6.9 mph - 0.00 in Rain , Thunderstorm Light Thunderstorms and Rain
10:05 AM 66.2 °F - - N/A% 29.72 in 4.0 mi NW 8.1 mph - 0.00 in Rain Light Rain
10:56 AM 66.9 °F - - N/A% 29.71 in 6.0 mi NW 6.9 mph - 0.03 in Rain Light Rain
10:59 AM 66.2 °F - - N/A% 29.73 in 6.0 mi NW 6.9 mph - 0.00 in   Haze
11:56 AM 65.8 °F - 65.8 °F 100% 29.75 in 4.0 mi North 15.0 mph - 0.00 in   Overcast
12:00 PM 66.2 °F - 66.2 °F 100% 29.78 in 2.5 mi North 12.7 mph - 0.00 in Rain Light Rain
12:07 PM 64.4 °F - 64.4 °F 100% 29.78 in 1.5 mi North 15.0 mph 23.0 mph 0.00 in Rain Light Rain
12:15 PM 64.4 °F - 64.4 °F 100% 29.79 in 2.5 mi North 13.8 mph - 0.00 in Rain Light Rain
12:23 PM 64.4 °F - 64.4 °F 100% 29.79 in 4.0 mi North 13.8 mph - 0.00 in Rain Light Rain
12:56 PM 66.9 °F - 63.9 °F 90% 29.76 in 6.0 mi North 16.1 mph 21.9 mph 0.00 in   Mostly Cloudy
1:56 PM 72.0 °F - 61.0 °F 68% 29.80 in 6.0 mi North 15.0 mph - N/A   Haze
2:56 PM 72.9 °F - 59.0 °F 62% 29.81 in 6.0 mi NNW 16.1 mph - N/A   Haze
3:56 PM 74.8 °F - 57.9 °F 55% 29.83 in 7.0 mi NNW 17.3 mph 21.9 mph N/A   Scattered Clouds
4:56 PM 74.8 °F - 56.8 °F 53% 29.83 in 8.0 mi NW 17.3 mph - N/A   Clear
5:56 PM 74.8 °F - 55.9 °F 52% 29.84 in 8.0 mi NW 12.7 mph - N/A   Partly Cloudy
6:56 PM 75.9 °F - 52.9 °F 45% 29.84 in 9.0 mi NNW 16.1 mph - N/A   Partly Cloudy
7:56 PM 73.9 °F - 52.9 °F 48% 29.85 in 8.0 mi NNW 12.7 mph - N/A   Clear
8:56 PM 68.9 °F - 52.9 °F 57% 29.87 in 8.0 mi NNW 8.1 mph - N/A   Clear
9:56 PM 66.9 °F - 54.0 °F 63% 29.89 in 8.0 mi NNW 5.8 mph - N/A   Clear
10:56 PM 65.8 °F - 55.9 °F 70% 29.91 in 7.0 mi WNW 9.2 mph - N/A   Clear
11:56 PM 63.9 °F - 55.9 °F 75% 29.93 in 8.0 mi NW 6.9 mph - N/A   Clear